Location: Emblem
(62.4273°N, 6.4710°E)
Time: 11:23:36
(UTC+01:00)

Tiros 1 - Visible Passes

Search period start: 05 March 2024 00:00
Search period end: 15 March 2024 00:00
Orbit: 625 x 658 km, 48.4° (Epoch: 05 March)

Date Brightness Start Highest point End Pass type
(mag) Time Alt. Az. Time Alt. Az. Time Alt. Az.
05 Mar 9.1 20:02:02 10° SSW 20:04:33 14° S 20:06:05 13° SSE visible
05 Mar 9.5 21:42:51 10° SW 21:43:38 12° SSW 21:43:38 12° SSW visible
06 Mar 9.1 20:25:32 10° SW 20:28:14 15° S 20:29:22 14° SSE visible
07 Mar 9.3 19:08:44 10° SSW 19:11:10 14° S 19:13:36 10° SE visible
07 Mar 9.2 20:49:22 10° SW 20:51:54 14° S 20:52:38 14° S visible
08 Mar 9.3 19:32:07 10° SSW 19:34:50 15° S 19:37:31 10° SE visible
08 Mar 9.4 21:13:43 10° SW 21:15:32 12° SSW 21:15:53 12° SSW visible
09 Mar 9.3 19:55:55 10° SW 19:58:29 15° S 20:01:04 10° SSE visible
10 Mar 9.5 20:20:08 10° SW 20:22:07 12° SSW 20:24:07 10° S visible
12 Mar 9.5 19:26:34 10° SW 19:28:42 13° SSW 19:30:50 10° SSE visible
